Weather History for Martha's Vineyard, MA

Change the Weather History Date:

Wednesday, October 3, 2012

  Actual Average Record
Temperature  
Mean Temperature 68 °F -  
Max Temperature 72 °F 67 °F 80 °F (1971)
Min Temperature 66 °F 50 °F 35 °F (1949)
Cooling Degree Days 4    
Growing Degree Days 18 (Base 50)    
Moisture  
Dew Point 66 °F    
Average Humidity 90    
Maximum Humidity 94    
Minimum Humidity 87    
Precipitation  
Precipitation 0.78 in - - ()
Sea Level Pressure  
Sea Level Pressure 30.06 in    
Wind  
Wind Speed 5 mph (ENE)    
Max Wind Speed 9 mph    
Max Gust Speed -    
Visibility 2 miles    
Events Fog , Rain    
Averages and records for this station are not official NWS values.
T = Trace of Precipitation, MM = Missing Value Source: NWS Daily Summary

Daily Weather History Graph

Daily Weather History Graph

Search for Another Location

Airport:

Trip Planner

Search our weather history database for the weather conditions in past years. The results will help you decide how hot, cold, wet, or windy it might be!

Date:

Astronomy

Oct. 03, 2012 Rise Set
Actual Time 6:41 AM EDT 6:20 PM EDT
Civil Twilight 6:14 AM EDT 6:47 PM EDT
Nautical Twilight 5:42 AM EDT 7:19 PM EDT
Astronomical Twilight 5:09 AM EDT 7:51 PM EDT
Moon 8:07 PM EDT (10/3) 10:04 AM EDT (10/3)
Length of Visible Light 12h 33m
Length of Day
11h 38m
Waning Gibbous, 89% of the Moon is Illuminated
Oct 3
Waning Gibbous
Oct 8
Last Quarter
Oct 15
New
Oct 21
First Quarter
Oct 29
Full

Hourly Weather History & Observations

Time (EDT) Temp. Dew Point Humidity Pressure Visibility Wind Dir Wind Speed Gust Speed Precip Events Conditions
12:53 AM 66.9 °F 63.0 °F 87% 30.03 in 10.0 mi ENE 5.8 mph - N/A   Overcast
1:53 AM 66.9 °F 64.0 °F 90% 30.02 in 4.0 mi ENE 6.9 mph - N/A   Overcast
2:36 AM 66.2 °F 62.6 °F 88% 30.02 in 2.0 mi ENE 8.1 mph - N/A   Overcast
2:44 AM 66.2 °F 64.4 °F 94% 30.02 in 1.5 mi ENE 6.9 mph - 0.00 in Rain Light Rain
2:53 AM 66.9 °F 64.0 °F 90% 30.02 in 1.8 mi ENE 8.1 mph - 0.00 in Rain Light Rain
3:15 AM 66.2 °F 64.4 °F 94% 30.02 in 2.5 mi East 8.1 mph - 0.04 in Rain Rain
3:25 AM 66.2 °F 64.4 °F 94% 30.02 in 3.0 mi East 8.1 mph - 0.11 in Rain Heavy Rain
3:53 AM 66.9 °F 64.0 °F 90% 30.02 in 4.0 mi ENE 5.8 mph - 0.47 in Rain Heavy Rain
4:53 AM 66.9 °F 64.0 °F 90% 30.03 in 10.0 mi ENE 5.8 mph - 0.16 in   Overcast
5:53 AM 66.9 °F 64.0 °F 90% 30.04 in 5.0 mi ENE 6.9 mph - 0.00 in Rain Light Rain
6:53 AM 66.9 °F 64.0 °F 90% 30.04 in 2.0 mi East 4.6 mph - 0.01 in Rain Light Rain
7:02 AM 66.2 °F 64.4 °F 94% 30.04 in 1.2 mi East 5.8 mph - 0.00 in Rain Light Rain
7:36 AM 68.0 °F 64.4 °F 88% 30.05 in 3.0 mi East 3.5 mph - 0.06 in Rain Light Rain
7:53 AM 68.0 °F 64.9 °F 90% 30.05 in 9.0 mi ENE 4.6 mph - 0.09 in Rain Light Rain
8:25 AM 69.8 °F 66.2 °F 88% 30.05 in 2.0 mi East 4.6 mph - 0.03 in Rain Rain
8:50 AM 69.8 °F 66.2 °F 88% 30.06 in 1.2 mi ESE 6.9 mph - 0.03 in   Overcast
8:53 AM 69.1 °F 66.0 °F 90% 30.06 in 1.0 mi SE 9.2 mph - 0.03 in   Overcast
9:04 AM 69.8 °F 66.2 °F 88% 30.06 in 0.8 mi SE 8.1 mph - N/A   Mist
9:53 AM 70.0 °F 66.9 °F 90% 30.06 in 0.5 mi ESE 6.9 mph - N/A Fog Fog
10:27 AM 69.8 °F 66.2 °F 88% 30.07 in 0.8 mi SSE 6.9 mph - N/A   Mist
10:41 AM 69.8 °F 68.0 °F 94% 30.07 in 0.8 mi ESE 4.6 mph - N/A   Mist
10:53 AM 70.0 °F 68.0 °F 93% 30.07 in 0.5 mi Calm Calm - N/A Fog Fog
11:53 AM 71.1 °F 69.1 °F 93% 30.07 in 0.5 mi Variable 3.5 mph - N/A Fog Fog
12:53 PM 71.1 °F 68.0 °F 90% 30.07 in 0.5 mi ENE 4.6 mph - N/A Fog Fog
1:36 PM 69.8 °F 66.2 °F 88% 30.06 in 1.0 mi ENE 5.8 mph - N/A   Mist
1:53 PM 71.1 °F 68.0 °F 90% 30.06 in 3.0 mi NE 3.5 mph - N/A   Overcast
2:53 PM 70.0 °F 66.9 °F 90% 30.06 in 3.0 mi NE 4.6 mph - N/A   Overcast
3:06 PM 69.8 °F 66.2 °F 88% 30.07 in 1.5 mi NNE 4.6 mph - N/A   Overcast
3:50 PM 69.8 °F 66.2 °F 88% 30.06 in 0.5 mi NE 5.8 mph - N/A   Overcast
4:53 PM 70.0 °F 66.0 °F 87% 30.07 in 1.5 mi Calm Calm - N/A   Overcast
5:53 PM 70.0 °F 66.9 °F 90% 30.08 in 1.5 mi Calm Calm - N/A   Overcast
6:53 PM 70.0 °F 66.0 °F 87% 30.09 in 1.0 mi Calm Calm - N/A   Mist
7:53 PM 69.1 °F 66.0 °F 90% 30.10 in 0.8 mi Calm Calm - N/A   Mist
8:16 PM 69.8 °F 66.2 °F 88% 30.11 in 0.8 mi Calm Calm - N/A   Mist
8:53 PM 69.1 °F 66.0 °F 90% 30.11 in 0.5 mi North 3.5 mph - N/A   Mist
9:04 PM 69.8 °F 66.2 °F 88% 30.11 in 0.8 mi North 3.5 mph - N/A   Mist
9:21 PM 68.0 °F 64.4 °F 88% 30.11 in 1.0 mi Calm Calm - N/A   Mist
9:53 PM 68.0 °F 64.9 °F 90% 30.12 in 1.5 mi Calm Calm - 0.01 in Rain Light Rain
10:53 PM 68.0 °F 64.9 °F 90% 30.12 in 1.0 mi Calm Calm - 0.00 in   Mist
11:53 PM 66.9 °F 64.0 °F 90% 30.12 in 0.8 mi Calm Calm - 0.01 in   Mist